Location: Observatorio Las Palmas
(29.0667°N, 110.9333°W)
Time: 15:09:30
(UTC-07:00)

Daily predictions for brighter satellites

Satellite Brightness Start Highest point End
(mag) Time Altitude Azimuth Time Altitude Azimuth Time Altitude Azimuth
CZ-3A R/B 3.7 18:19:36 10° SSW 18:23:27 35° SE 18:38:57 10° E
Ariane Rocket 4.1 18:33:24 10° S 18:38:20 52° W 18:43:18 10° NNW
DELTA 2 R/B (1) 3.6 18:33:33 10° WNW 18:39:08 82° NNE 18:44:42 10° ESE
Lacrosse 4 Rocket 3.0 18:35:12 10° NW 18:39:13 42° WSW 18:43:20 10° S
MOS 1 4.4 18:34:01 10° SSE 18:39:30 56° ENE 18:45:03 10° N
CZ-4 R/B 2.7 18:38:08 10° S 18:42:06 46° W 18:46:00 10° NNW
MTI 4.4 18:43:44 10° N 18:46:53 61° WNW 18:50:01 10° SSW
SPOT 3 Rocket 3.7 18:42:59 10° SSE 18:47:58 50° ENE 18:52:59 10° N
GPS 2-04 Rocket1 3.0 18:45:56 10° WNW 18:49:41 58° SSW 18:53:16 10° SE
KM-V1 3.1 18:49:48 10° W 18:51:52 71° S 18:54:41 10° ESE
Cosmos 2056 Rocket 3.6 18:49:29 10° N 18:54:51 61° ENE 19:00:11 10° SSE
Cosmos 1238 4.1 18:53:23 10° S 18:56:23 75° E 18:59:48 10° N
FREGAT/IRIS 3.8 18:55:55 10° SE 18:58:16 22° ENE 19:00:39 10° NNE
Meteor 1-14 Rocket 4.4 18:53:56 10° S 18:59:28 55° E 19:05:08 10° NNE
Cosmos 2219 Rocket 2.5 18:54:13 10° NNW 18:59:51 73° WSW 19:05:26 10° S
Cosmos 405 2.9 18:57:01 10° S 19:00:30 88° WNW 19:03:59 10° N
CENTAUR R/B 2.4 18:56:17 10° SSW 19:01:54 65° ESE 19:08:14 10° NE
Cosmos 2233 Rocket 4.0 18:56:08 10° N 19:02:26 88° E 19:08:38 10° S
NOAA 12 4.2 18:58:02 10° SSE 19:03:19 87° WSW 19:08:39 10° NNW
Sich 1 Rocket 4.4 19:00:24 10° SSE 19:04:21 30° E 19:08:15 10° NNE
Cosmos 2227 Rocket 3.2 18:59:32 10° SW 19:04:58 49° WNW 19:10:26 10° N
H-2A R/B 2.8 19:01:59 10° SSE 19:05:48 54° ENE 19:09:37 10° N
MOS 1-B Rocket 4.3 18:59:01 10° S 19:06:00 80° WSW 19:12:01 10° NNW
Geosat 4.4 19:07:17 10° NE 19:11:59 40° ESE 19:16:39 10° S
Cosmos 1782 Rocket 4.5 19:08:19 10° SSE 19:12:02 26° E 19:15:44 10° NNE
Cosmos 2237 Rocket 2.1 19:07:01 10° NNW 19:12:37 67° ENE 19:18:12 10° SSE
FENGYUN 3A 4.4 19:08:37 10° S 19:13:53 56° W 19:19:11 10° NNW
Cosmos 1378 Rocket 4.3 19:10:30 10° NNE 19:14:23 29° E 19:18:14 10° SE
SL-16 R/B 3.1 19:10:18 10° N 19:14:57 25° ENE 19:17:32 19° ESE
Cosmos 158 Rocket 3.7 19:10:45 10° S 19:15:40 79° ESE 19:20:33 10° NNE
Cosmos 1464 Rocket 4.2 19:11:41 10° N 19:17:29 44° E 19:23:17 10° SSE
Meteor 1-20 Rocket 4.2 19:12:40 10° S 19:18:14 68° E 19:23:56 10° NNE
CZ-2D R/B 4.3 19:18:27 24° E 19:18:51 25° ENE 19:22:04 10° NNE
Cosmos 2297 Rocket 3.5 19:13:59 10° SW 19:19:17 42° WNW 19:24:39 10° N
Iridium 4 Rocket 3.5 19:17:06 10° NNE 19:21:40 43° E 19:25:51 10° SSE
GPS 2-14 Rocket1 4.4 19:18:37 10° SW 19:22:05 25° S 19:24:16 17° SE
ALOS 4.3 19:23:34 10° SSW 19:27:41 31° W 19:31:50 10° NW
Cosmos 1072 Rocket 4.5 19:21:42 10° N 19:27:51 62° E 19:34:04 10° SSE
Meteor 1-18 Rocket 4.3 19:26:01 10° N 19:31:27 51° E 19:36:48 10° SSE
Cosmos 1812 2.6 19:27:54 10° N 19:31:47 89° W 19:35:39 10° S
Lacrosse 5 1.8 19:27:05 10° NNW 19:32:08 69° NE 19:35:26 21° SE
COSMOS 2455 4.2 19:27:59 10° SSE 19:31:04 20° ESE 19:31:04 20° ESE
ERS-2 2.0 19:28:52 10° SSE 19:32:32 90° SE 19:36:14 10° NNW
Abrixas rocket 3.3 19:35:04 10° WNW 19:38:04 41° SW 19:39:29 24° S
CRYOSAT 2 4.3 19:38:03 10° NNE 19:42:52 61° E 19:47:38 10° S
Cosmos 1437 Rocket 2.7 19:39:23 10° S 19:43:20 66° E 19:45:35 25° NNE
Cosmos 1633 3.8 19:40:20 10° SSW 19:43:41 41° W 19:47:04 10° N
Cosmos 44 3.9 19:39:22 10° N 19:44:08 38° ENE 19:44:21 38° ENE
Cosmos 2333 Rocket 4.1 19:41:02 10° NW 19:45:54 30° WSW 19:50:45 10° SSW
Thor Agena Rocket 3.6 19:42:48 10° N 19:47:52 77° WNW 19:52:53 10° SSW
Gbstr 26 Del rocket 2.6 19:44:45 10° SSW 19:48:17 63° SSE 19:48:17 63° SSE
USA 32 4.0 19:44:24 10° S 19:49:37 85° W 19:54:52 10° N
Envisat 2.9 19:45:43 12° SSE 19:50:19 58° ENE 19:55:17 10° N
Cosmos 2034 Rocket 3.9 19:45:18 10° N 19:51:38 64° E 19:57:54 10° SSE
HJ-1C 3.8 19:49:44 10° S 19:53:07 63° W 19:56:31 10° NNW
Cosmos 1269 Rocket 3.9 19:48:45 10° SSW 19:54:02 89° W 19:59:21 10° NNE
Cosmos 1891 Rocket 4.3 19:49:02 10° N 19:55:14 85° E 20:01:19 10° S
ATLAS 2A CENTAUR R/B 4.2 19:46:21 10° W 19:55:45 27° SW 20:00:01 11° SSE
SeaSat 1 2.3 19:58:01 58° ESE 19:58:40 64° ENE 20:03:32 10° NNW
Cosmos 1816 Rocket 4.4 19:56:10 10° S 20:02:28 75° E 20:08:50 10° N
Cosmos 2227 4.1 19:57:57 10° SSW 20:03:40 78° ESE 20:06:05 36° NNE
Cosmos 2346 Rocket 4.4 19:58:46 10° S 20:04:55 64° E 20:11:02 10° NNE
Resurs 01 Rocket 4.1 20:10:56 12° N 20:10:56 12° N 20:11:12 10° N
ARGOS Delta rocket 4.4 20:02:47 10° N 20:07:29 54° WNW 20:11:55 10° SSW
Sakura Rocket 4.2 20:06:11 10° WSW 20:12:29 80° S 20:14:27 55° E
OAO 2 Rocket 3.7 20:08:28 10° W 20:13:15 51° NNW 20:13:18 51° N
SJ-6B 4.2 20:15:23 21° SSW 20:17:16 36° W 20:20:46 10° NNW
IUS-1 SRM-2 4.3 19:51:10 10° W 20:22:22 61° SSW 20:24:20 46° SSE
Centaur D-1A AC-32 4.2 20:17:36 10° W 20:23:03 77° S 20:29:17 41° ESE
Centaur D-1A AC-32 4.2 20:17:36 10° W 20:23:03 77° S 20:29:16 41° ESE
Centaur D-1A AC-32 4.2 20:17:36 10° W 20:23:03 77° S 20:29:18 41° ESE
SL-16 R/B 3.7 20:54:01 10° NW 20:58:59 32° WSW 20:59:33 32° WSW
CZ-3C R/B 3.6 21:22:03 10° WSW 22:12:59 - E 21:25:49 46° SW
